Hourly Data Report for October 30, 2015

All times are specified in Local Standard Time (LST). Add 1 hour to adjust for Daylight Saving Time where and when it is observed.

MONCTON INTL A
NEW BRUNSWICK

46°06'44.000" N
64°40'43.000" W
70.70 m
8103201
71705
YQM

Download Data

Hourly Data (October 2015)
Hourly Data Report for October 30, 2015
Temp Definition
°C
Dew Point Temp Definition
°C
Rel Hum Definition
%
Wind Dir Definition
10's deg

Wind Spd Definition
km/h
Visibility Definition
km
Stn Press Definition
kPa
Hmdx Definition


Wind Chill Definition


Weather Definition


TIME
00:00 Legend Double Dagger 10.2 4.8 69 25 28 24.1 98.52     LegendNANA
01:00 Legend Double Dagger 8.9 2.0 62 26 28 24.1 98.58     LegendNANA
02:00 Legend Double Dagger 8.2 1.8 64 24 21 24.1 98.54     Mostly Cloudy
03:00 Legend Double Dagger 7.9 2.8 70 22 18 24.1 98.57     LegendNANA
04:00 Legend Double Dagger 8.1 1.3 62 25 41 24.1 98.61     LegendNANA
05:00 Legend Double Dagger 6.8 1.3 68 24 27 24.1 98.65     Clear
06:00 Legend Double Dagger 6.1 1.1 70 23 24 24.1 98.59     LegendNANA
07:00 Legend Double Dagger 6.4 0.3 65 23 30 24.1 98.59     LegendNANA
08:00 Legend Double Dagger 7.9 0.4 59 24 40 24.1 98.60     Mainly Clear
09:00 Legend Double Dagger 9.4 1.3 57 24 53 24.1 98.60     LegendNANA
10:00 Legend Double Dagger 9.4 1.8 59 24 40 24.1 98.68     LegendNANA
11:00 Legend Double Dagger 9.9 1.1 54 24 50 24.1 98.76     Mostly Cloudy
12:00 Legend Double Dagger 10.1 0.2 50 27 43 24.1 98.83     LegendNANA
13:00 Legend Double Dagger 10.7 -1.0 44 26 36 24.1 98.93     LegendNANA
14:00 Legend Double Dagger 8.8 -2.8 44 26 55 24.1 99.04     Mostly Cloudy
15:00 Legend Double Dagger 8.2 -3.9 42 27 40 24.1 99.20     LegendNANA
16:00 Legend Double Dagger 7.1 -5.0 42 27 41 24.1 99.28     LegendNANA
17:00 Legend Double Dagger 5.9 -5.1 45 29 21 24.1 99.40     Mainly Clear
18:00 Legend Double Dagger 5.2 -4.7 49 27 24 24.1 99.54     LegendNANA
19:00 Legend Double Dagger 4.7 -5.1 49 28 28 24.1 99.64     LegendNANA
20:00 Legend Double Dagger 4.3 -5.8 48 28 32 24.1 99.73     Mainly Clear
21:00 Legend Double Dagger 3.3 -5.6 52 27 29 24.1 99.83     LegendNANA
22:00 Legend Double Dagger 2.4 -5.7 55 26 21 24.1 99.95     LegendNANA
23:00 Legend Double Dagger 2.2 -6.2 54 26 30 24.1 100.03     Clear

Notes on Data Quality.

Legend

  • E = Estimated
  • M = Missing
  • NA = Not Available
  • ‡ = Partner data that is not subject to review by the National Climate Archives
Date modified: